This is the latest recevied weather packets stored in our database for station/object K4SHP-15. If no packets are shown the sender has not sent any weather packets the latest 10 day(s).
| Time | Temp. | Humidity | Pressure | Rain* | Wind** | Luminosity | Snow |
|---|---|---|---|---|---|---|---|
| 1777776322 | 11.67° C | 97% | 1012.2 hPa | 0 mm | - | - | - |
| 1777771642 | 11.67° C | 97% | 1011.4 hPa | 0 mm | - | - | - |
| 1777768562 | 11.67° C | 96% | 1010.2 hPa | 0.25 mm | - | - | - |
| 1777766402 | 11.67° C | 96% | 1010.1 hPa | 0 mm | - | - | - |
| 1777760302 | 12.78° C | 95% | 1009.5 hPa | 0 mm | - | - | - |
| 1777758842 | 13.33° C | 96% | 1009.2 hPa | 0.25 mm | - | - | - |
| 1777758302 | 13.33° C | 96% | 1009.2 hPa | 0.25 mm | - | - | - |
| 1777756682 | 13.33° C | 96% | 1008.9 hPa | 0.25 mm | - | - | - |
| 1777752023 | 13.33° C | 96% | 1008.6 hPa | 1.02 mm | - | - | - |
| 1777748402 | 13.33° C | 96% | 1009.2 hPa | 1.27 mm | - | - | - |
| 1777737263 | 13.33° C | 96% | 1010.4 hPa | 1.27 mm | - | - | - |
| 1777732583 | 13.33° C | 96% | 1010.4 hPa | 1.78 mm | - | - | - |
| 1777729502 | 13.89° C | 96% | 1010 hPa | 0 mm | - | - | - |
| 1777727363 | 14.44° C | 97% | 1008.6 hPa | 0 mm | - | - | - |
| 1777726442 | 14.44° C | 97% | 1008.8 hPa | 0 mm | - | - | - |
| 1777721762 | 14.44° C | 97% | 1009.7 hPa | 0.76 mm | - | - | - |
| 1777720142 | 14.44° C | 97% | 1009.7 hPa | 0.76 mm | - | - | - |
| 1777715642 | 14.44° C | 97% | 1009.2 hPa | 3.05 mm | - | - | - |
| 1777713482 | 13.89° C | 96% | 1009.6 hPa | 3.3 mm | - | - | - |
| 1777710962 | 14.44° C | 95% | 1009.7 hPa | 2.29 mm | - | - | - |
| 1777709363 | 14.44° C | 93% | 1009.1 hPa | 0.51 mm | - | - | - |
| 1777706303 | 15.56° C | 89% | 1008.9 hPa | 0 mm | - | - | - |
| 1777693502 | 15.56° C | 86% | 1010.7 hPa | 0 mm | - | - | - |
| 1777690442 | 16.11° C | 84% | 1010.8 hPa | 0 mm | - | - | - |
| 1777689923 | 16.11° C | 84% | 1010.8 hPa | 0 mm | - | - | - |
* Rain latest hour (hover to see other rain measurements)
** Current wind speed in m/s (hover to see current wind gust speed)